Location: Woodstock
(35.2731°N, 89.9823°W)
Time: 19:49:43
(UTC+00:00)

Vanguard 1 Rocket - Visible Passes

Search period start: 22 January 2026 00:00
Search period end: 01 February 2026 00:00
Orbit: 651 x 4216 km, 34.3° (Epoch: 22 January)

Date Brightness Start Highest point End Pass type
(mag) Time Alt. Az. Time Alt. Az. Time Alt. Az.
22 Jan 10.1 02:03:12 10° WSW 02:29:35 79° SSE 02:35:27 62° E visible
22 Jan 10.7 04:36:48 10° W 04:52:37 47° W 04:52:37 47° W visible
23 Jan 10.5 00:48:11 10° SW 01:12:54 69° SSE 01:27:06 34° E visible
23 Jan 10.2 03:19:28 10° W 03:44:17 81° WSW 03:44:17 81° WSW visible
23 Jan 11.3 05:54:27 10° W 06:01:27 24° W 06:01:27 24° W visible
23 Jan 10.9 23:34:33 10° SW 23:56:37 57° SE 00:18:45 14° ENE visible
24 Jan 10.2 02:03:05 10° WSW 02:29:29 83° SSE 02:35:55 62° E visible
24 Jan 10.7 04:36:45 10° W 04:53:05 48° W 04:53:05 48° W visible
25 Jan 10.6 00:47:56 10° WSW 01:12:33 75° SSE 01:27:32 33° E visible
25 Jan 10.2 03:19:29 10° W 03:44:42 82° WSW 03:44:42 82° WSW visible
25 Jan 11.3 05:54:18 10° WNW 06:01:52 25° W 06:01:52 25° W visible
25 Jan 10.8 23:34:06 10° SW 23:56:02 63° SSE 00:19:09 13° ENE visible
26 Jan 10.2 02:03:06 10° WSW 02:29:25 86° S 02:36:18 61° E visible
26 Jan 10.7 04:36:41 10° W 04:53:28 49° W 04:53:28 49° W visible
27 Jan 10.6 00:47:52 10° WSW 01:12:18 80° SSE 01:27:53 33° E visible
27 Jan 10.2 03:19:32 10° W 03:45:03 83° WSW 03:45:03 83° WSW visible
27 Jan 11.3 05:54:11 10° WNW 06:02:13 25° W 06:02:13 25° W visible
27 Jan 10.8 23:33:52 10° SW 23:55:32 69° SSE 00:19:29 13° ENE visible
28 Jan 10.2 02:03:12 10° W 02:29:24 87° S 02:36:38 60° E visible
28 Jan 10.7 04:36:37 10° W 04:53:48 50° W 04:53:48 50° W visible
29 Jan 10.6 00:47:56 10° WSW 01:12:07 83° SSE 01:28:12 32° E visible
29 Jan 10.2 03:19:36 10° W 03:45:22 83° SW 03:45:22 83° SW visible
29 Jan 11.3 05:54:05 10° WNW 06:02:32 26° W 06:02:32 26° W visible
29 Jan 10.7 23:33:49 10° WSW 23:55:09 75° SSE 00:19:47 12° ENE visible
30 Jan 10.2 02:03:22 10° W 02:29:24 88° S 02:36:56 59° E visible
30 Jan 10.7 04:36:32 10° WNW 04:54:06 50° W 04:54:06 50° W visible
31 Jan 10.6 00:48:07 10° WSW 01:12:00 86° S 01:28:31 32° E visible
31 Jan 10.2 03:19:39 10° W 03:45:40 80° SSW 03:45:40 80° SSW visible
31 Jan 11.3 05:54:04 10° WNW 06:02:51 26° W 06:02:51 26° W visible
